User: anonymous   Login
Location: Unspecified
(0.0000°N, 0.0000°E)
Time: 19:11:06
(UTC+00:00)
Language:

Milstar 3 - Orbit

View from above orbital plane
View from above orbital plane
View from above satellite
View from above satellite

Ground track
Ground track

The orbit data is extracted from the following two-line orbital elements,

1 25724U 99023A   19018.72305666 0.00000050  00000-0  61999-3 0    02
2 25724  28.2178 337.3999 2136851  73.8867 286.1129  9.37469230    00
Epoch (UTC): 18 January 2019 17:21:12
Eccentricity: 0.2136851
inclination: 28.2178°
perigee height: 1092 km
apogee height: 5153 km
right ascension of ascending node: 337.3999°
argument of perigee: 73.8867°
revolutions per day: 9.37469230
mean anomaly at epoch: 286.1129°
orbit number at epoch: 0

The dashed part of the orbit path shows where the satellite is in the earth's shadow,  

DLR